Voltar ao catálogo

ATLAS 5 CENTAUR DEB

AtivoHEO
NORAD 43990·DEBRIS·🇺🇸 United States

Lançado Sep 17, 2014 de Cape Canaveral Space Force Station

Loading…

Próximas Passagens (próximas 24 horas)

TLE

AtualizadoSource: Space-Track

Época: Sep 5, 2026, 20:22 UTC

1 43990U 14055AV  26248.84908097 -.00000152  00000-0  00000-0 0  9996
2 43990  20.5005 126.7367 4719562 196.5427 140.3419  1.88649585 54644

Acompanhe ATLAS 5 CENTAUR DEB em tempo real com AllMySat

Download on the App Store